timestamp,surface_pressure_avg,surface_temp_avg,battery_voltage,lat,long
2018-06-15 00:00:00+00:00,404.0362,5.84,13.13,47.84626,-54.09684
2018-06-15 00:10:00+00:00,398.6579,6.5,13.05,47.84626,-54.09684
2018-06-15 00:20:00+00:00,401.1478,5.8,13.05,47.84626,-54.09684
2018-06-15 00:30:00+00:00,406.4579,5.8,13.05,47.84626,-54.09684
2018-06-15 00:40:00+00:00,401.538,5.88,13.13,47.84626,-54.09684
2018-06-15 00:50:00+00:00,394.793,5.9,13.13,47.84626,-54.09684
2018-06-15 01:00:00+00:00,397.3979,5.68,13.05,47.84626,-54.09684
2018-06-15 01:10:00+00:00,393.6229,5.63,12.97,47.84626,-54.09684
2018-06-15 01:20:00+00:00,381.6712,5.98,13.05,47.84626,-54.09684
2018-06-15 01:30:00+00:00,374.0746,5.87,13.05,47.84626,-54.09684
2018-06-15 01:40:00+00:00,374.4545,5.6,13.05,47.84626,-54.09684
2018-06-15 01:50:00+00:00,368.3396,5.63,13.05,47.84626,-54.09684
2018-06-15 02:00:00+00:00,361.4679,6.17,13.05,47.84626,-54.09684
2018-06-15 02:10:00+00:00,360.4196,5.7,12.97,47.84626,-54.09684
2018-06-15 02:20:00+00:00,352.5063,5.97,12.97,47.84626,-54.09684
2018-06-15 02:30:00+00:00,340.5446,6.78,13.05,47.84626,-54.09684
2018-06-15 02:40:00+00:00,333.3096,6.02,13.05,47.84626,-54.09684
2018-06-15 02:50:00+00:00,322.5397,6.38,13.05,47.84626,-54.09684
2018-06-15 03:00:00+00:00,311.9447,6.7,12.97,47.84626,-54.09684
2018-06-15 03:10:00+00:00,306.8247,6.7,12.89,47.84626,-54.09684
2018-06-15 03:20:00+00:00,296.9664,6.84,12.97,47.84626,-54.09684
2018-06-15 03:30:00+00:00,277.0764,7.09,12.97,47.84626,-54.09684
2018-06-15 03:40:00+00:00,263.8597,7.1,12.97,47.84626,-54.09684
2018-06-15 03:50:00+00:00,255.9864,6.94,12.97,47.84626,-54.09684
2018-06-15 04:00:00+00:00,242.5064,6.93,12.97,47.84626,-54.09684
2018-06-15 04:10:00+00:00,228.6914,7.0,12.89,47.84626,-54.09684
2018-06-15 04:20:00+00:00,225.7614,7.0,12.97,47.84626,-54.09684
2018-06-15 04:30:00+00:00,221.5231,6.85,12.97,47.84626,-54.09684
2018-06-15 04:40:00+00:00,204.2148,6.8,12.97,47.84626,-54.09684
2018-06-15 04:50:00+00:00,187.8415,6.9,12.97,47.84626,-54.09684
2018-06-15 05:00:00+00:00,187.6114,6.92,12.89,47.84626,-54.09684
2018-06-15 05:10:00+00:00,186.9365,6.9,12.89,47.84626,-54.09684
2018-06-15 05:20:00+00:00,178.7298,6.89,12.89,47.84626,-54.09684
2018-06-15 05:30:00+00:00,170.6132,6.9,12.97,47.84626,-54.09684
2018-06-15 05:40:00+00:00,166.5098,6.9,12.97,47.84626,-54.09684
2018-06-15 05:50:00+00:00,166.3299,6.96,12.97,47.84626,-54.09684
2018-06-15 06:00:00+00:00,169.9515,7.01,12.89,47.84626,-54.09684
2018-06-15 06:10:00+00:00,173.6848,7.05,12.81,47.84626,-54.09684
2018-06-15 06:20:00+00:00,169.3482,7.0,12.89,47.84626,-54.09684
2018-06-15 06:30:00+00:00,163.4615,7.0,12.89,47.84626,-54.09684
2018-06-15 06:40:00+00:00,172.3831,7.0,12.97,47.84626,-54.09684
2018-06-15 06:50:00+00:00,184.7664,7.0,12.97,47.84626,-54.09684
2018-06-15 07:00:00+00:00,179.6865,7.08,12.89,47.84626,-54.09684
2018-06-15 07:10:00+00:00,177.7465,7.2,12.81,47.84626,-54.09684
2018-06-15 07:20:00+00:00,190.9231,7.25,12.89,47.84626,-54.09684
2018-06-15 07:30:00+00:00,194.6731,7.25,12.89,47.84626,-54.09684
2018-06-15 07:40:00+00:00,192.7765,7.24,12.89,47.84626,-54.09684
2018-06-15 07:50:00+00:00,198.5598,7.2,12.97,47.84626,-54.09684
2018-06-15 08:00:00+00:00,202.5448,7.2,12.89,47.84626,-54.09684
2018-06-15 08:10:00+00:00,203.7498,7.2,12.81,47.84626,-54.09684
2018-06-15 08:20:00+00:00,208.5414,7.2,12.89,47.84626,-54.09684
2018-06-15 08:30:00+00:00,210.3115,7.2,12.89,47.84626,-54.09684
2018-06-15 08:40:00+00:00,212.3514,7.2,12.89,47.84626,-54.09684
2018-06-15 08:50:00+00:00,218.9832,7.19,12.89,47.84626,-54.09684
2018-06-15 09:00:00+00:00,221.2531,7.17,12.89,47.84626,-54.09684
2018-06-15 09:10:00+00:00,222.3364,7.15,12.81,47.84626,-54.09684
2018-06-15 09:20:00+00:00,233.5481,7.0,12.89,47.84626,-54.09684
2018-06-15 09:30:00+00:00,244.0881,6.9,12.89,47.84626,-54.09684
2018-06-15 09:40:00+00:00,250.7097,6.9,12.97,47.84626,-54.09684
2018-06-15 09:50:00+00:00,253.7714,6.85,12.97,47.84626,-54.09684
2018-06-15 10:00:00+00:00,261.5514,6.8,12.97,47.84626,-54.09684
2018-06-15 10:10:00+00:00,274.7047,6.8,12.89,47.84626,-54.09684
2018-06-15 10:20:00+00:00,284.6464,6.79,12.97,47.84626,-54.09684
2018-06-15 10:30:00+00:00,286.8181,6.86,12.97,47.84626,-54.09684
2018-06-15 10:40:00+00:00,299.3997,6.9,13.05,47.84626,-54.09684
2018-06-15 10:50:00+00:00,317.968,6.85,13.05,47.84626,-54.09684
2018-06-15 11:00:00+00:00,325.8547,6.89,13.05,47.84626,-54.09684
2018-06-15 11:10:00+00:00,325.4246,7.07,13.05,47.84626,-54.09684
2018-06-15 11:20:00+00:00,338.053,6.9,13.21,47.84626,-54.09684
2018-06-15 11:30:00+00:00,349.5862,6.8,13.29,47.84626,-54.09684
2018-06-15 11:40:00+00:00,349.4514,6.9,13.37,47.84626,-54.09684
2018-06-15 11:50:00+00:00,350.053,7.0,13.6,47.84626,-54.09684
2018-06-15 12:00:00+00:00,352.803,6.9,13.68,47.84626,-54.09684
2018-06-15 12:10:00+00:00,352.3046,6.9,13.68,47.84626,-54.09684
2018-06-15 12:20:00+00:00,354.3781,6.87,13.92,47.84626,-54.09684
2018-06-15 12:30:00+00:00,357.7012,6.84,14.08,47.84626,-54.09684
2018-06-15 12:40:00+00:00,362.2212,6.85,14.16,47.84626,-54.09684
2018-06-15 12:50:00+00:00,358.8013,6.98,14.24,47.84626,-54.09684
2018-06-15 13:00:00+00:00,356.5228,7.09,14.24,47.84626,-54.09684
2018-06-15 13:10:00+00:00,361.1031,6.9,14.16,47.84626,-54.09684
2018-06-15 13:20:00+00:00,357.2346,6.9,14.32,47.84626,-54.09684
2018-06-15 13:30:00+00:00,355.9696,6.95,14.32,47.84626,-54.09684
2018-06-15 13:40:00+00:00,353.848,7.0,14.32,47.84626,-54.09684
2018-06-15 13:50:00+00:00,349.5246,7.02,14.32,47.84626,-54.09684
2018-06-15 14:00:00+00:00,343.9531,7.09,14.32,47.84626,-54.09684
2018-06-15 14:10:00+00:00,344.733,7.1,14.24,47.84626,-54.09684
2018-06-15 14:20:00+00:00,343.4396,7.1,14.24,47.84626,-54.09684
2018-06-15 14:30:00+00:00,327.3529,7.1,14.32,47.84626,-54.09684
2018-06-15 14:40:00+00:00,321.8214,7.15,14.32,47.84626,-54.09684
2018-06-15 14:50:00+00:00,319.5514,7.11,14.32,47.84626,-54.09684
2018-06-15 15:00:00+00:00,310.2863,7.1,14.24,47.84626,-54.09684
2018-06-15 15:10:00+00:00,296.5547,7.1,14.16,47.84626,-54.09684
2018-06-15 15:20:00+00:00,287.8514,7.1,14.24,47.84626,-54.09684
2018-06-15 15:30:00+00:00,281.4897,7.0,14.16,47.84626,-54.09684
2018-06-15 15:40:00+00:00,268.3763,7.05,14.16,47.84626,-54.09684
2018-06-15 15:50:00+00:00,258.6014,7.09,14.16,47.84626,-54.09684
2018-06-15 16:00:00+00:00,249.0764,7.09,14.16,47.84626,-54.09684
2018-06-15 16:10:00+00:00,236.7997,7.1,14.08,47.84626,-54.09684
2018-06-15 16:20:00+00:00,224.9464,7.1,14.16,47.84626,-54.09684
2018-06-15 16:30:00+00:00,218.0948,7.1,14.24,47.84626,-54.09684
2018-06-15 16:40:00+00:00,209.8564,7.1,14.32,47.84626,-54.09684
2018-06-15 16:50:00+00:00,202.4398,7.1,14.32,47.84626,-54.09684
2018-06-15 17:00:00+00:00,197.7747,7.07,14.24,47.84626,-54.09684
2018-06-15 17:10:00+00:00,192.3381,7.1,14.16,47.84626,-54.09684
2018-06-15 17:20:00+00:00,187.0831,7.09,14.32,47.84626,-54.09684
2018-06-15 17:30:00+00:00,184.8331,7.08,14.32,47.84626,-54.09684
2018-06-15 17:40:00+00:00,182.5131,7.07,14.32,47.84626,-54.09684
2018-06-15 17:50:00+00:00,177.4015,7.1,14.32,47.84626,-54.09684
2018-06-15 18:00:00+00:00,174.6964,7.1,14.32,47.84626,-54.09684
2018-06-15 18:10:00+00:00,176.1882,7.09,14.16,47.84626,-54.09684
2018-06-15 18:20:00+00:00,173.3231,7.08,14.24,47.84626,-54.09684
2018-06-15 18:30:00+00:00,168.7632,7.1,14.24,47.84626,-54.09684
2018-06-15 18:40:00+00:00,176.2948,7.1,14.24,47.84626,-54.09684
2018-06-15 18:50:00+00:00,185.0315,7.1,14.24,47.84626,-54.09684
2018-06-15 19:00:00+00:00,181.8265,7.1,14.08,47.84626,-54.09684
2018-06-15 19:10:00+00:00,183.2715,7.1,14.0,47.84626,-54.09684
2018-06-15 19:20:00+00:00,195.4331,7.1,14.16,47.84626,-54.09684
2018-06-15 19:30:00+00:00,195.8998,7.09,14.24,47.84626,-54.09684
2018-06-15 19:40:00+00:00,190.8232,7.08,14.24,47.84626,-54.09684
2018-06-15 19:50:00+00:00,201.9181,7.0,14.24,47.84626,-54.09684
2018-06-15 20:00:00+00:00,213.7981,7.0,14.16,47.84626,-54.09684
2018-06-15 20:10:00+00:00,213.3715,7.0,14.08,47.84626,-54.09684
2018-06-15 20:20:00+00:00,216.0548,7.0,14.16,47.84626,-54.09684
2018-06-15 20:30:00+00:00,227.0298,7.0,14.24,47.84626,-54.09684
2018-06-15 20:40:00+00:00,234.8397,7.0,14.24,47.84626,-54.09684
2018-06-15 20:50:00+00:00,238.1181,7.0,14.16,47.84626,-54.09684
2018-06-15 21:00:00+00:00,240.3331,7.0,14.08,47.84626,-54.09684
2018-06-15 21:10:00+00:00,247.0881,7.0,14.0,47.84626,-54.09684
2018-06-15 21:20:00+00:00,251.858,6.92,14.08,47.84626,-54.09684
2018-06-15 21:30:00+00:00,255.168,6.9,14.0,47.84626,-54.09684
2018-06-15 21:40:00+00:00,259.463,6.89,14.0,47.84626,-54.09684
2018-06-15 21:50:00+00:00,271.8148,6.32,14.0,47.84626,-54.09684
2018-06-15 22:00:00+00:00,281.6081,5.98,13.92,47.84626,-54.09684
2018-06-15 22:10:00+00:00,289.8814,6.17,13.84,47.84626,-54.09684
2018-06-15 22:20:00+00:00,298.6013,6.2,13.84,47.84626,-54.09684
2018-06-15 22:30:00+00:00,310.1063,6.1,13.84,47.84626,-54.09684
2018-06-15 22:40:00+00:00,319.753,5.99,13.84,47.84626,-54.09684
2018-06-15 22:50:00+00:00,334.753,5.9,13.84,47.84626,-54.09684
2018-06-15 23:00:00+00:00,345.453,5.9,13.68,47.84626,-54.09684
2018-06-15 23:10:00+00:00,354.843,5.9,13.6,47.84626,-54.09684
2018-06-15 23:20:00+00:00,362.4796,5.9,13.53,47.84626,-54.09684
2018-06-15 23:30:00+00:00,370.3046,5.66,13.53,47.84626,-54.09684
2018-06-15 23:40:00+00:00,381.3245,5.2,13.44,47.84626,-54.09684
2018-06-15 23:50:00+00:00,386.5545,5.27,13.44,47.84626,-54.09684
